Regional Weather Roundup
Issued by NWS Mt. Holly, NJ

Current Version | Previous Version | Text Only | Print | Product List | Glossary On
Versions: 1 2 3 4 5 6 7 8 9 10 11 12 13 14 15 16 17 18 19 20 21 22 23 24 25 26 27 28 29 30 31 32 33 34 35 36 37 38 39 40 41 42 43 44 45 46 47 48 49 50
000
ASUS41 KPHI 282310
RWRPHI

REGIONAL WEATHER ROUNDUP
NATIONAL WEATHER SERVICE MOUNT HOLLY NJ
600 PM EST FRI NOV 28 2014

NOTE:  "FAIR" INDICATES FEW OR NO CLOUDS BELOW 12,000 FEET WITH NO
SIGNIFICANT WEATHER AND/OR OBSTRUCTIONS TO VISIBILITY.

 * = STATION DOES NOT REPORT PRECIPITATION (E.G. RAIN, SNOW, ETC.)
        OR FOG.

NJZ015>026-290000-
SOUTHERN NEW JERSEY

CITY           SKY/WX    TMP DP  RH WIND       PRES   REMARKS
POMONA         CLEAR     30  17  58 NW8       30.25R WCI  22
RIO GRANDE*    CLEAR     34  16  47 N7        30.25S WCI  28
MILLVILLE      CLEAR     31  16  54 NW6       30.26S WCI  25
WRIGHTSTOWN    CLEAR     32  12  43 NW13G18   30.21R WCI  22
MOUNT HOLLY    CLEAR     31  15  52 W3        30.26R
TRENTON        CLEAR     30  14  51 W3        30.24R

$$
NJZ001>014-290000-
NORTHERN NEW JERSEY

CITY           SKY/WX    TMP DP  RH WIND       PRES   REMARKS
SUSSEX         CLEAR     23  11  60 CALM      30.21S
ANDOVER*         N/A     22  16  78 CALM      30.22R
MORRISTOWN     CLEAR     28  16  59 NW6       30.23S WCI  22
NEWARK         PTCLDY    31  12  45 NW12G18   30.24R WCI  22
TETERBORO      CLEAR     30  14  51 NW5       30.23R WCI  25
CALDWELL       CLEAR     29  11  47 NW6       30.24R WCI  23
SOMERVILLE     CLEAR     30  13  49 NW6       30.22S WCI  24
ALLAIRE*       CLEAR     30  12  47 W8        30.23R WCI  23
TOMS RIVER*    CLEAR     30  16  55 CALM      30.25R

$$
PAZ043-044-047-054-055-060>062-066>071-290000-
EASTERN PENNSYLVANIA

CITY           SKY/WX    TMP DP  RH WIND       PRES   REMARKS
PHILADELPHIA   PTCLDY    35  14  42 NW7       30.27R WCI  29
NORTH PHILA    CLEAR     32  14  47 W3        30.27R
BLUE BELL      CLEAR     32  19  59 CALM      30.24R
DOYLESTOWN     CLEAR     28  16  60 W6        30.23  WCI  22
QUAKERTOWN*    CLEAR     28  16  59 CALM      30.23S
POTTSTOWN      CLEAR     26  16  65 W3        30.26R
LANCASTER      CLEAR     29  15  56 W3        30.25R
COATESVILLE    CLEAR     28  18  64 NW5       30.24R WCI  23
READING        CLEAR     30  17  58 W5        30.24R WCI  25
ALLENTOWN      CLEAR     25  12  58 SW5       30.23R WCI  19
MOUNT POCONO   FAIR      19   9  65 NW7       30.11S WCI  10
HAZLETON       PTCLDY    25  12  58 CALM      30.18R
WILKES BARRE   CLEAR     21  12  68 VRB5      30.20R WCI  15

$$
DEZALL-MDZ008-012-015-019-020-290000-
DELAWARE AND EASTERN MARYLAND

CITY           SKY/WX    TMP DP  RH WIND       PRES   REMARKS
WILMINGTON     CLEAR     32  15  49 W6        30.28R WCI  26
DOVER          CLEAR     31  17  55 W6        30.25R WCI  25
GEORGETOWN     CLEAR     34  16  47 CALM      30.28R
EASTON         CLEAR     36  19  51 CALM      30.31S
PATUXENT       PTCLDY    33  17  51 W5        30.29R WCI  29
OCEAN CITY     FAIR      34  18  52 W3        30.28R
WALLOPS ISLAND CLEAR     34  20  56 N5        30.30R WCI  30
CAMBRIDGE      PTCLDY    34  21  60 CALM      30.28S
SALISBURY      CLEAR     36  19  50 CALM      30.28R

$$
PAZ001-021-NYZ056-072-MDZ011-DCZ001-290000-
OTHER NEARBY LOCATIONS

CITY           SKY/WX    TMP DP  RH WIND       PRES   REMARKS
HARRISBURG     PTCLDY    31  16  54 W7        30.26R WCI  24
STATE COLLEGE  PTCLDY    25  12  58 W7        30.22R WCI  17
WILLIAMSPORT   CLEAR     29  12  49 W6        30.22R WCI  23
BINGHAMTON     PTCLDY    21   8  57 NW3       30.15R
NEW YORK CITY  CLEAR     31  12  45 NW6       30.25R WCI  25
BALTIMORE      PTCLDY    33  16  49 CALM      30.27R
WASHINGTON DC  PTCLDY    37  17  44 NW7       30.30R WCI  32

$$


USA.gov is the U.S. government's official web portal to all federal, state and local government web resources and services.